Powrót do katalogu

FENGYUN 1C DEB

AktywnySSO
NORAD 31252·DEBRIS·🇨🇳 China

Wystrzelony May 10, 1999 z Taiyuan Satellite Launch Center

Loading…

Następne Przeloty (najbliższe 24 godziny)

TLE

Starzejące sięSource: Space-Track

Epoka: Sep 7, 2026, 06:33 UTC

1 31252U 99025BMJ 26250.27352275  .00001013  00000-0  25255-3 0  9993
2 31252  98.3037 266.6726 0212707  82.5291 280.0010 14.40967264 10742

Śledź FENGYUN 1C DEB w czasie rzeczywistym z AllMySat

Download on the App Store